Location: Aranbee
(34.0885°N, 118.2342°W)
Time: 08:28:52
(UTC+00:00)

Courier 1B Rocket - Pass Details

Date: 30 November 2020
Orbit: 920 x 1202 km, 28.2° (Epoch: 27 January)

Event Time Altitude Azimuth Distance (km) Brightness Sun altitude
Rises 13:34:34 0° 250° (WSW) 4,078 - -13.4°
Exits shadow 13:36:25 - 247° (WSW) 3,471 7.4 -13.1°
Reaches altitude 10° 13:37:29 10° 245° (WSW) 3,125 7.2 -12.8°
Maximum altitude 13:45:02 52° 172° (S) 1,444 6.1 -11.4°
Drops below altitude 10° 13:52:26 10° 98° (E) 3,070 9.1 -9.9°
Sets 13:55:16 0° 94° (E) 4,001 9.9 -9.4°
